Location: Oshawa
(43.9000°N, 78.8670°W)
Time: 00:54:37
(UTC-04:00)

Iridium 54 - Visible Passes

Search period start: 30 August 2016 00:00
Search period end: 09 September 2016 00:00
Orbit: 776 x 779 km, 86.4° (Epoch: 29 August)

Date Brightness Start Highest point End Pass type
(mag) Time Alt. Az. Time Alt. Az. Time Alt. Az.
30 Aug 7.2 20:20:05 10° NE 20:23:13 16° ENE 20:26:19 10° ESE visible
30 Aug 5.8 21:59:17 10° N 22:04:28 67° W 22:07:36 24° SSW visible
31 Aug 5.5 21:25:43 10° N 21:30:57 69° E 21:34:29 21° SSE visible
31 Aug 8.1 23:08:10 10° NW 23:11:01 15° WNW 23:13:52 10° WSW visible
01 Sep 6.1 20:52:26 10° NNE 20:57:18 38° E 21:01:24 14° SE visible
01 Sep 7.4 22:33:32 10° NNW 22:37:49 26° W 22:41:54 11° SW visible
02 Sep 6.8 20:19:30 10° NNE 20:23:32 22° ENE 20:27:32 10° SE visible
02 Sep 6.5 21:59:30 10° NNW 22:04:30 46° W 22:08:52 13° SSW visible
03 Sep 5.5 21:25:48 10° N 21:31:03 84° W 21:35:53 12° S visible
03 Sep 8.5 23:10:20 10° WNW 23:10:51 10° WNW 23:11:22 10° W visible
04 Sep 5.6 20:52:21 10° N 20:57:29 54° E 21:02:35 10° SSE visible
04 Sep 8.0 22:34:10 10° NW 22:37:44 19° WNW 22:41:17 10° WSW visible
05 Sep 6.3 20:19:10 10° NNE 20:23:47 31° ENE 20:28:22 10° SE visible
05 Sep 7.1 21:59:51 10° NNW 22:04:29 33° W 22:09:06 10° SW visible
06 Sep 6.1 21:25:59 10° N 21:31:07 59° W 21:36:13 10° SSW visible
07 Sep 5.4 20:52:22 10° N 20:57:37 78° E 21:02:50 10° S visible
07 Sep 8.3 22:35:14 10° NW 22:37:36 13° WNW 22:39:58 10° WSW visible
08 Sep 5.9 20:19:01 10° N 20:24:00 43° E 20:28:57 10° SSE visible
08 Sep 7.7 22:00:21 10° NNW 22:04:25 23° W 22:08:29 10° SW visible
